This is the latest recevied weather packets stored in our database for station/object KB1RMA-4. If no packets are shown the sender has not sent any weather packets the latest 10 day(s).
| Time | Temp. | Humidity | Pressure | Rain* | Wind** | Luminosity | Snow |
|---|---|---|---|---|---|---|---|
| 1788358553 | 18.89° C | 88% | 1022.5 hPa | 0 mm | - | 191 W/m² | - |
| 1788358249 | 18.89° C | 88% | 1022.6 hPa | 0 mm | - | 165 W/m² | - |
| 1788357943 | 18.33° C | 89% | 1022.4 hPa | 0 mm | - | 161 W/m² | - |
| 1788357639 | 18.33° C | 88% | 1022.4 hPa | 0 mm | - | 162 W/m² | - |
| 1788357338 | 18.33° C | 89% | 1022.4 hPa | 0 mm | - | 148 W/m² | - |
| 1788357033 | 18.33° C | 89% | 1022.4 hPa | 0 mm | - | 118 W/m² | - |
| 1788356729 | 18.33° C | 89% | 1022.4 hPa | 0 mm | - | 110 W/m² | - |
| 1788356429 | 18.33° C | 90% | 1022.5 hPa | 0 mm | - | 136 W/m² | - |
| 1788356124 | 18.33° C | 90% | 1022.4 hPa | 0 mm | - | 121 W/m² | - |
| 1788355823 | 18.33° C | 90% | 1022.4 hPa | 0 mm | - | 140 W/m² | - |
| 1788355518 | 18.33° C | 91% | 1022.3 hPa | 0 mm | - | 131 W/m² | - |
| 1788355214 | 18.33° C | 91% | 1022.6 hPa | 0 mm | - | 93 W/m² | - |
| 1788354910 | 18.33° C | 91% | 1022.6 hPa | 0 mm | - | 51 W/m² | - |
| 1788354631 | 18.33° C | 91% | 1022.5 hPa | 0 mm | - | 63 W/m² | - |
| 1788354306 | 17.78° C | 91% | 1022.3 hPa | 0 mm | - | 74 W/m² | - |
| 1788354001 | 17.78° C | 91% | 1022.2 hPa | 0 mm | - | 69 W/m² | - |
| 1788353697 | 17.78° C | 91% | 1022.3 hPa | 0 mm | - | 59 W/m² | - |
| 1788353392 | 17.78° C | 91% | 1022.5 hPa | 0 mm | - | 56 W/m² | - |
| 1788353088 | 17.78° C | 92% | 1022.6 hPa | 0 mm | - | 62 W/m² | - |
| 1788352783 | 17.78° C | 92% | 1022.4 hPa | 0 mm | - | 67 W/m² | - |
| 1788352480 | 17.78° C | 93% | 1022.6 hPa | 0 mm | - | 71 W/m² | - |
| 1788352178 | 17.78° C | 93% | 1022.6 hPa | 0 mm | - | 69 W/m² | - |
| 1788351874 | 17.22° C | 94% | 1022.5 hPa | 0 mm | - | 60 W/m² | - |
| 1788351569 | 17.78° C | 94% | 1022.9 hPa | 0 mm | - | 47 W/m² | - |
| 1788351264 | 17.78° C | 95% | 1022.6 hPa | 0 mm | - | 56 W/m² | - |
* Rain latest hour (hover to see other rain measurements)
** Current wind speed in m/s (hover to see current wind gust speed)